TimeCDT,TemperatureF,Dew PointF,Humidity,Sea Level PressureIn,VisibilityMPH,Wind Direction,Wind SpeedMPH,Gust SpeedMPH,PrecipitationIn,Events,Conditions,WindDirDegrees,DateUTC
12:15 AM,32.0,26.6,80,30.03,10.0,SW,11.5,-,N/A,,Partly Cloudy,230,2012-10-07 05:15:00
12:35 AM,32.0,26.6,80,30.02,10.0,SW,12.7,-,N/A,,Mostly Cloudy,230,2012-10-07 05:35:00
12:55 AM,32.0,26.6,80,30.01,10.0,SW,12.7,-,N/A,,Overcast,230,2012-10-07 05:55:00
1:15 AM,32.0,26.6,80,30.00,10.0,SW,12.7,-,N/A,,Overcast,230,2012-10-07 06:15:00
1:35 AM,32.0,26.6,80,29.99,10.0,SW,12.7,-,N/A,,Overcast,230,2012-10-07 06:35:00
2:15 AM,32.0,28.4,87,29.97,10.0,SW,13.8,-,N/A,,Overcast,230,2012-10-07 07:15:00
2:35 AM,33.8,26.6,75,29.97,10.0,SW,13.8,-,N/A,,Overcast,230,2012-10-07 07:35:00
2:55 AM,33.8,26.6,75,29.96,10.0,SW,13.8,20.7,N/A,,Overcast,230,2012-10-07 07:55:00
3:15 AM,33.8,26.6,75,29.95,10.0,SW,13.8,-,N/A,,Overcast,230,2012-10-07 08:15:00
3:35 AM,33.8,26.6,75,29.94,10.0,SW,13.8,20.7,N/A,,Overcast,230,2012-10-07 08:35:00
3:55 AM,32.0,26.6,80,29.93,10.0,WSW,15.0,-,N/A,,Overcast,240,2012-10-07 08:55:00
4:15 AM,33.8,26.6,75,29.92,10.0,WSW,15.0,-,N/A,,Overcast,240,2012-10-07 09:15:00
4:35 AM,33.8,26.6,75,29.91,10.0,SW,15.0,-,N/A,,Overcast,230,2012-10-07 09:35:00
4:55 AM,33.8,26.6,75,29.91,10.0,SW,13.8,-,N/A,,Overcast,230,2012-10-07 09:55:00
5:15 AM,33.8,28.4,81,29.90,10.0,WSW,15.0,19.6,N/A,,Overcast,240,2012-10-07 10:15:00
5:35 AM,33.8,28.4,81,29.89,10.0,WSW,16.1,-,N/A,,Overcast,240,2012-10-07 10:35:00
5:55 AM,33.8,28.4,81,29.89,10.0,WSW,13.8,19.6,N/A,,Overcast,240,2012-10-07 10:55:00
6:15 AM,33.8,28.4,81,29.88,10.0,WSW,15.0,-,N/A,,Overcast,240,2012-10-07 11:15:00
6:35 AM,33.8,28.4,81,29.87,10.0,WSW,15.0,19.6,N/A,,Overcast,240,2012-10-07 11:35:00
6:55 AM,33.8,28.4,81,29.87,10.0,WSW,12.7,-,N/A,,Overcast,240,2012-10-07 11:55:00
7:15 AM,33.8,28.4,81,29.86,10.0,SW,11.5,-,N/A,,Overcast,230,2012-10-07 12:15:00
7:35 AM,32.0,28.4,87,29.86,10.0,SW,11.5,-,N/A,,Overcast,230,2012-10-07 12:35:00
7:55 AM,32.0,28.4,87,29.86,10.0,WSW,11.5,-,N/A,,Overcast,240,2012-10-07 12:55:00
8:15 AM,32.0,28.4,87,29.86,10.0,WSW,11.5,-,N/A,,Overcast,240,2012-10-07 13:15:00
8:55 AM,33.8,30.2,87,29.85,10.0,WSW,10.4,-,N/A,,Overcast,240,2012-10-07 13:55:00
9:15 AM,35.6,30.2,81,29.85,10.0,WSW,11.5,-,N/A,,Overcast,250,2012-10-07 14:15:00
9:35 AM,35.6,30.2,81,29.85,10.0,WSW,12.7,-,N/A,,Overcast,240,2012-10-07 14:35:00
9:55 AM,35.6,32.0,87,29.85,10.0,WSW,11.5,-,N/A,,Overcast,250,2012-10-07 14:55:00
10:15 AM,37.4,32.0,81,29.85,10.0,West,11.5,-,N/A,,Overcast,260,2012-10-07 15:15:00
10:35 AM,37.4,32.0,81,29.84,10.0,WSW,12.7,-,N/A,,Overcast,250,2012-10-07 15:35:00
10:55 AM,39.2,32.0,75,29.84,10.0,WSW,12.7,-,N/A,,Overcast,250,2012-10-07 15:55:00
11:15 AM,39.2,32.0,75,29.83,10.0,WSW,11.5,-,N/A,,Overcast,250,2012-10-07 16:15:00
11:35 AM,39.2,32.0,75,29.83,10.0,West,11.5,-,N/A,,Overcast,260,2012-10-07 16:35:00
11:55 AM,41.0,32.0,70,29.83,10.0,West,11.5,-,N/A,,Overcast,270,2012-10-07 16:55:00
12:15 PM,41.0,32.0,70,29.83,10.0,West,11.5,-,N/A,,Overcast,280,2012-10-07 17:15:00
12:35 PM,41.0,32.0,70,29.83,10.0,West,11.5,-,N/A,,Overcast,270,2012-10-07 17:35:00
12:55 PM,41.0,32.0,70,29.83,10.0,West,10.4,-,N/A,,Overcast,270,2012-10-07 17:55:00
1:15 PM,41.0,32.0,70,29.82,10.0,West,11.5,-,N/A,,Overcast,260,2012-10-07 18:15:00
1:35 PM,42.8,32.0,66,29.81,10.0,West,10.4,-,N/A,,Overcast,260,2012-10-07 18:35:00
1:55 PM,44.6,32.0,61,29.80,10.0,West,9.2,-,N/A,,Scattered Clouds,270,2012-10-07 18:55:00
2:15 PM,46.4,32.0,57,29.79,10.0,West,9.2,-,N/A,,Clear,260,2012-10-07 19:15:00
2:35 PM,46.4,32.0,57,29.79,10.0,WNW,10.4,-,N/A,,Clear,290,2012-10-07 19:35:00
2:55 PM,48.2,32.0,54,29.78,10.0,West,10.4,-,N/A,,Clear,270,2012-10-07 19:55:00
3:15 PM,48.2,32.0,54,29.77,10.0,WNW,11.5,19.6,N/A,,Partly Cloudy,290,2012-10-07 20:15:00
3:35 PM,50.0,32.0,50,29.77,10.0,WNW,13.8,-,N/A,,Partly Cloudy,300,2012-10-07 20:35:00
3:55 PM,50.0,32.0,50,29.77,10.0,West,11.5,-,N/A,,Scattered Clouds,280,2012-10-07 20:55:00
4:15 PM,50.0,32.0,50,29.77,10.0,NNW,10.4,-,N/A,,Mostly Cloudy,330,2012-10-07 21:15:00
4:35 PM,48.2,32.0,54,29.77,10.0,NNW,10.4,-,N/A,,Mostly Cloudy,330,2012-10-07 21:35:00
4:55 PM,48.2,32.0,54,29.77,10.0,NNW,11.5,-,N/A,,Mostly Cloudy,340,2012-10-07 21:55:00
5:15 PM,48.2,32.0,54,29.76,10.0,North,10.4,-,N/A,,Mostly Cloudy,350,2012-10-07 22:15:00
5:35 PM,46.4,32.0,57,29.76,10.0,NNE,11.5,-,N/A,,Partly Cloudy,20,2012-10-07 22:35:00
5:55 PM,44.6,32.0,61,29.76,10.0,NNE,6.9,-,N/A,,Clear,20,2012-10-07 22:55:00
6:15 PM,42.8,32.0,66,29.77,10.0,NE,4.6,-,N/A,,Clear,40,2012-10-07 23:15:00
6:35 PM,41.0,33.8,76,29.76,10.0,NNE,4.6,-,N/A,,Mostly Cloudy,30,2012-10-07 23:35:00
6:55 PM,41.0,32.0,70,29.76,10.0,ENE,3.5,-,N/A,,Mostly Cloudy,60,2012-10-07 23:55:00
7:15 PM,41.0,32.0,70,29.77,10.0,NE,3.5,-,N/A,,Partly Cloudy,50,2012-10-08 00:15:00
7:55 PM,37.4,32.0,81,29.76,10.0,East,3.5,-,N/A,,Clear,100,2012-10-08 00:55:00
8:15 PM,35.6,32.0,87,29.76,10.0,ESE,4.6,-,N/A,,Clear,110,2012-10-08 01:15:00
8:35 PM,35.6,32.0,87,29.75,10.0,ESE,5.8,-,N/A,,Clear,110,2012-10-08 01:35:00
8:55 PM,35.6,32.0,87,29.75,10.0,ESE,5.8,-,N/A,,Mostly Cloudy,110,2012-10-08 01:55:00
9:15 PM,35.6,33.8,93,29.74,10.0,SSE,6.9,-,N/A,,Overcast,150,2012-10-08 02:15:00
9:35 PM,37.4,33.8,87,29.73,10.0,SE,6.9,-,N/A,,Mostly Cloudy,140,2012-10-08 02:35:00
9:55 PM,37.4,33.8,87,29.73,10.0,SSE,8.1,-,N/A,,Partly Cloudy,150,2012-10-08 02:55:00
10:15 PM,37.4,33.8,87,29.72,10.0,SSE,8.1,-,N/A,,Mostly Cloudy,150,2012-10-08 03:15:00
10:35 PM,37.4,33.8,87,29.71,10.0,SSE,8.1,-,N/A,,Overcast,160,2012-10-08 03:35:00
10:55 PM,37.4,33.8,87,29.71,10.0,SSE,8.1,-,N/A,,Overcast,160,2012-10-08 03:55:00
11:15 PM,37.4,32.0,81,29.70,10.0,SSE,8.1,-,N/A,,Overcast,160,2012-10-08 04:15:00
11:35 PM,37.4,32.0,81,29.70,10.0,South,6.9,-,N/A,,Overcast,170,2012-10-08 04:35:00
11:55 PM,37.4,32.0,81,29.69,10.0,South,6.9,-,N/A,,Overcast,180,2012-10-08 04:55:00